Prairie Du Chien, WI

4:18 PM CST on January 17, 2018 (GMT -0600)
Prairie Du Chien Municipal

Weather History for KPDC - January, 2014

Change the Weather History Date:

Wednesday, January 8, 2014

  Actual Average Record
Temperature  
Mean Temperature -2 °F -  
Max Temperature 9 °F 23 °F 53 °F (2003)
Min Temperature -12 °F 3 °F -24 °F (1971)
Degree Days  
Heating Degree Days 66    
Moisture  
Dew Point -12 °F    
Average Humidity 69    
Maximum Humidity 79    
Minimum Humidity 51    
Precipitation  
Precipitation 0.00 in - - ()
Sea Level Pressure  
Sea Level Pressure 30.42 in    
Wind  
Wind Speed 1 mph (WNW)    
Max Wind Speed 7 mph    
Max Gust Speed -    
Visibility 10 miles    
Events      
Averages and records for this station are not official NWS values.
T = Trace of Precipitation, MM = Missing Value Source: NWS Daily Summary

Daily Weather History Graph

Daily Weather History Graph

Search for Another Location

Airport or City:

Trip Planner

Search our weather history database for the weather conditions in past years. The results will help you decide how hot, cold, wet, or windy it might be!

Date:

Astronomy

Jan. 08, 2014 Rise Set
Actual Time 7:35 AM CST 4:47 PM CST
Civil Twilight 7:03 AM CST 5:19 PM CST
Nautical Twilight 6:28 AM CST 5:54 PM CST
Astronomical Twilight 5:53 AM CST 6:28 PM CST
Moon 11:44 AM CST (1/8) 12:35 AM CST (1/8)
Length of Visible Light 10h 15m
Length of Day
9h 11m
First Quarter, 56% of the Moon is Illuminated
Jan 8
First Quarter
Jan 15
Full
Jan 23
Last Quarter
Jan 30
New
Feb 6
First Quarter

Hourly Weather History & Observations

Time (CST) Temp. Windchill Dew Point Humidity Pressure Visibility Wind Dir Wind Speed Gust Speed Precip Events Conditions
12:15 AM -10.5 °F - -15.7 °F 78% 30.29 in 10.0 mi Calm Calm - N/A   Clear
12:35 AM -9.8 °F - -14.8 °F 78% 30.28 in 10.0 mi Calm Calm - N/A   Clear
12:55 AM -11.9 °F - -17.1 °F 78% 30.29 in 10.0 mi Calm Calm - N/A   Clear
1:15 AM -10.3 °F - -15.3 °F 78% 30.29 in 10.0 mi Calm Calm - N/A   Clear
1:35 AM -11.7 °F - -17.1 °F 77% 30.29 in 10.0 mi Calm Calm - N/A   Clear
1:55 AM -10.8 °F - -16.4 °F 76% 30.30 in 10.0 mi Calm Calm - N/A   Clear
2:15 AM -10.8 °F - -16.1 °F 78% 30.32 in 10.0 mi Calm Calm - N/A   Clear
2:35 AM -11.2 °F - -16.6 °F 77% 30.32 in 10.0 mi Calm Calm - N/A   Clear
2:55 AM -11.6 °F - -17.0 °F 77% 30.33 in 10.0 mi Calm Calm - N/A   Clear
3:15 AM -11.7 °F - -17.3 °F 76% 30.33 in 10.0 mi Calm Calm - N/A   Clear
3:35 AM -11.4 °F - -16.8 °F 77% 30.33 in 10.0 mi Calm Calm - N/A   Clear
3:55 AM -11.2 °F - -17.0 °F 76% 30.34 in 10.0 mi Calm Calm - N/A   Clear
4:15 AM -12.5 °F - -18.0 °F 76% 30.34 in 10.0 mi Calm Calm - N/A   Clear
4:35 AM -11.4 °F - -16.8 °F 77% 30.34 in 10.0 mi Calm Calm - N/A   Clear
4:55 AM -12.1 °F - -18.4 °F 74% 30.34 in 10.0 mi Calm Calm - N/A   Clear
5:15 AM -11.6 °F - -17.5 °F 75% 30.34 in 10.0 mi Calm Calm - N/A   Clear
5:35 AM -12.1 °F - -17.5 °F 77% 30.35 in 10.0 mi Calm Calm - N/A   Clear
5:55 AM -12.1 °F - -17.9 °F 76% 30.35 in 10.0 mi Calm Calm - N/A   Scattered Clouds
6:15 AM -10.5 °F - -16.4 °F 75% 30.36 in 10.0 mi Calm Calm - N/A   Mostly Cloudy
6:35 AM -10.3 °F - -15.7 °F 77% 30.36 in 10.0 mi Calm Calm - N/A   Scattered Clouds
6:55 AM -10.5 °F - -16.1 °F 76% 30.36 in 10.0 mi Calm Calm - N/A   Clear
7:15 AM -11.0 °F - -17.1 °F 74% 30.37 in 10.0 mi Calm Calm - N/A   Scattered Clouds
7:35 AM -10.7 °F - -16.6 °F 75% 30.38 in 10.0 mi Calm Calm - N/A   Scattered Clouds
7:55 AM -10.3 °F - -15.9 °F 76% 30.39 in 10.0 mi Calm Calm - N/A   Clear
8:15 AM -10.5 °F - -16.1 °F 76% 30.40 in 10.0 mi Calm Calm - N/A   Clear
8:35 AM -10.3 °F - -15.9 °F 76% 30.41 in 10.0 mi Calm Calm - N/A   Clear
8:55 AM -9.6 °F - -15.5 °F 75% 30.43 in 10.0 mi Calm Calm - N/A   Clear
9:15 AM -9.4 °F - -15.0 °F 76% 30.44 in 10.0 mi Calm Calm - N/A   Clear
9:35 AM -8.3 °F - -15.0 °F 73% 30.44 in 10.0 mi Calm Calm - N/A   Clear
9:55 AM -7.4 °F - -14.8 °F 70% 30.44 in 10.0 mi Calm Calm - N/A   Clear
10:15 AM -6.0 °F - -12.8 °F 72% 30.45 in 10.0 mi Calm Calm - N/A   Clear
10:35 AM -3.8 °F - -10.8 °F 72% 30.45 in 10.0 mi Calm Calm - N/A   Clear
10:55 AM 0.1 °F -7.7 °F -8.9 °F 66% 30.44 in 10.0 mi West 3.5 mph - N/A   Clear
11:15 AM 1.9 °F -9.2 °F -8.0 °F 63% 30.44 in 10.0 mi WNW 5.8 mph - N/A   Clear
11:35 AM 3.2 °F -4.2 °F -7.8 °F 60% 30.43 in 10.0 mi WNW 3.5 mph - N/A   Clear
11:55 AM 3.9 °F - -7.4 °F 59% 30.43 in 10.0 mi Calm Calm - N/A   Clear
12:15 PM 4.8 °F -4.3 °F -7.2 °F 58% 30.42 in 10.0 mi NW 4.6 mph - N/A   Clear
12:35 PM 5.9 °F - -6.2 °F 58% 30.42 in 1.5 mi Calm Calm - N/A   Haze
12:55 PM 6.3 °F - -6.5 °F 56% 30.42 in 10.0 mi Calm Calm - N/A   Clear
1:15 PM 7.9 °F - -6.0 °F 53% 30.41 in 10.0 mi Calm Calm - N/A   Clear
1:35 PM 8.2 °F -0.3 °F -6.0 °F 52% 30.42 in 10.0 mi NNW 4.6 mph - N/A   Clear
1:55 PM 8.4 °F 1.8 °F -5.6 °F 53% 30.42 in 10.0 mi North 3.5 mph - N/A   Clear
2:15 PM 9.0 °F - -5.6 °F 52% 30.42 in 10.0 mi Calm Calm - N/A   Clear
2:35 PM 9.1 °F 2.6 °F -4.9 °F 53% 30.43 in 10.0 mi WNW 3.5 mph - N/A   Clear
2:55 PM 9.1 °F -0.7 °F -5.8 °F 51% 30.43 in 10.0 mi WNW 5.8 mph - N/A   Clear
3:15 PM 8.4 °F -2.8 °F -5.1 °F 54% 30.44 in 10.0 mi WNW 6.9 mph - N/A   Clear
3:35 PM 8.6 °F 2.0 °F -6.0 °F 52% 30.45 in 10.0 mi NW 3.5 mph - N/A   Clear
3:55 PM 7.9 °F -2.2 °F -6.0 °F 53% 30.45 in 10.0 mi WNW 5.8 mph - N/A   Clear
4:15 PM 6.4 °F -2.4 °F -6.0 °F 57% 30.46 in 10.0 mi West 4.6 mph - N/A   Clear
4:35 PM 6.8 °F -0.1 °F -6.7 °F 54% 30.46 in 10.0 mi West 3.5 mph - N/A   Clear
4:55 PM 5.7 °F - -6.9 °F 56% 30.46 in 10.0 mi Calm Calm - N/A   Clear
5:15 PM 4.1 °F -3.2 °F -7.6 °F 58% 30.46 in 10.0 mi West 3.5 mph - N/A   Clear
5:35 PM 3.9 °F -3.4 °F -7.6 °F 59% 30.46 in 10.0 mi WNW 3.5 mph - N/A   Clear
5:55 PM 3.9 °F - -7.4 °F 59% 30.48 in 10.0 mi Calm Calm - N/A   Clear
6:15 PM 1.6 °F - -8.3 °F 63% 30.48 in 10.0 mi Calm Calm - N/A   Clear
6:35 PM 0.3 °F - -8.0 °F 68% 30.48 in 10.0 mi Calm Calm - N/A   Clear
6:55 PM -0.8 °F - -8.7 °F 69% 30.48 in 10.0 mi Calm Calm - N/A   Clear
7:15 PM -0.6 °F - -8.7 °F 69% 30.49 in 10.0 mi Calm Calm - N/A   Clear
7:35 PM -2.6 °F - -9.4 °F 73% 30.49 in 10.0 mi Calm Calm - N/A   Clear
7:55 PM -5.1 °F - -11.9 °F 72% 30.50 in 10.0 mi Calm Calm - N/A   Clear
8:15 PM -5.6 °F - -12.5 °F 72% 30.50 in 10.0 mi Calm Calm - N/A   Clear
8:35 PM -6.2 °F - -12.8 °F 73% 30.51 in 10.0 mi Calm Calm - N/A   Clear
8:55 PM -5.8 °F - -11.6 °F 76% 30.51 in 10.0 mi Calm Calm - N/A   Clear
9:15 PM -6.0 °F - -11.6 °F 77% 30.51 in 10.0 mi Calm Calm - N/A   Clear
9:35 PM -8.7 °F - -14.4 °F 76% 30.51 in 10.0 mi Calm Calm - N/A   Clear
9:55 PM -8.3 °F - -14.1 °F 76% 30.51 in 10.0 mi Calm Calm - N/A   Clear
10:15 PM -8.3 °F - -13.7 °F 77% 30.51 in 10.0 mi Calm Calm - N/A   Clear
10:35 PM -8.1 °F - -13.0 °F 79% 30.51 in 10.0 mi Calm Calm - N/A   Clear
10:55 PM -11.4 °F - -16.8 °F 77% 30.50 in 10.0 mi Calm Calm - N/A   Clear
11:15 PM -11.7 °F - -17.0 °F 78% 30.50 in 10.0 mi Calm Calm - N/A   Clear
11:35 PM -11.6 °F - -17.3 °F 76% 30.50 in 10.0 mi Calm Calm - N/A   Clear
11:55 PM -11.9 °F - -17.0 °F 78% 30.50 in 10.0 mi Calm Calm - N/A   Clear